Starlink 31330

operational
NORAD ID: 58951 Int'l Des: 2024-027 Owner: SPXS Country: US Constellation: starlink
LEOCIRCULAR

About Starlink 31330

Description loading...

Live Position

Loading 3D Globe...

Upcoming Passes

Altitude History

Altitude vs Time

uPlot chart will show altitude changes over time

Two-Line Element Set

1 58951U 24027W 25354.17483424 -.00000096 00000-0 88782-5 0 9999
2 58951 53.1628 316.1817 0001393 83.8983 276.2176 15.30194580105190
Epoch: Dec 20, 2025 • Age: 20 hours

Current Status

Altitude 478.2 km
Velocity 7.63 km/s
Sub-Earth Point -10.06°S, 52.5°E
Launch Date Feb 10, 2024
Age 1.8 years
Type internet

Technical Details

Classification Payload
Mass 730.00 kg
Dry Mass 700.00 kg
Total Mass 730.00 kg
Length 0.30 m
Diameter 4.10 m
Span 29.00 m
Shape Box + pan
Manufacturer SPXS
Bus Type Starlink V2M
Phase Status In Orbit
Owner/State SPXS/US

Large Constellations

Loading constellations...